,,Stat6,,Stat2,,Stat8,,Stat9,,Stat10,,Wind1,,Wind1,
time,status,PA1M_AVG,status,PR1M_SUM,status,RH1M_AVG,status,SR1M_AVG,status,TA1M_AVG,status,W1dAve1m,status,W1sAve1m,
2004-10-14, 00:00:01,VALID,921.346,VALID,0,VALID,100,VALID,0,VALID,18.8247,VALID,116,VALID,0.93125,
2004-10-14, 00:01:01,VALID,921.346,VALID,0,VALID,100,VALID,0,VALID,18.8891,VALID,106,VALID,0.630903,
2004-10-14, 00:02:01,VALID,921.338,VALID,0,VALID,100,VALID,0,VALID,18.9213,VALID,89,VALID,0.555233,
2004-10-14, 00:03:01,VALID,921.338,VALID,0,VALID,100,VALID,0,VALID,18.9315,VALID,80,VALID,0.249238,
2004-10-14, 00:04:01,VALID,921.352,VALID,0,VALID,100,VALID,0,VALID,18.8861,VALID,77,VALID,0.374273,
2004-10-14, 00:05:01,VALID,921.355,VALID,0,VALID,100,VALID,0,VALID,18.8704,VALID,74,VALID,0.55069,
2004-10-14, 00:06:01,VALID,921.365,VALID,0,VALID,100,VALID,0,VALID,18.857,VALID,94,VALID,0.370192,
2004-10-14, 00:07:01,VALID,921.343,VALID,0,VALID,100,VALID,0,VALID,18.8607,VALID,57,VALID,0.935268,
2004-10-14, 00:08:01,VALID,921.33,VALID,0,VALID,100,VALID,0,VALID,18.8605,VALID,44,VALID,0.847202,
2004-10-14, 00:09:01,VALID,921.301,VALID,0,VALID,100,VALID,-0.0169808,VALID,18.8508,VALID,49,VALID,0.782158,
2004-10-14, 00:10:01,VALID,921.292,VALID,0,VALID,100,VALID,0.0169808,VALID,18.8339,VALID,60,VALID,0.734375,
2004-10-14, 00:11:01,VALID,921.269,VALID,0,VALID,100,VALID,0,VALID,18.8178,VALID,61,VALID,0.647135,
2004-10-14, 00:12:01,VALID,921.264,VALID,0,VALID,100,VALID,0,VALID,18.8021,VALID,48,VALID,0.672917,
2004-10-14, 00:13:01,VALID,921.235,VALID,0,VALID,100,VALID,0,VALID,18.7828,VALID,48,VALID,0.695146,
2004-10-14, 00:14:00,VALID,921.221,VALID,0,VALID,100,VALID,0,VALID,18.7634,VALID,47,VALID,0.488372,
2004-10-14, 00:15:00,VALID,921.196,VALID,0,VALID,100,VALID,-0.0169808,VALID,18.7701,VALID,48,VALID,0.524503,
2004-10-14, 00:16:00,VALID,921.193,VALID,0,VALID,100,VALID,0,VALID,18.7664,VALID,53,VALID,0.571975,
2004-10-14, 00:17:00,VALID,921.18,VALID,0,VALID,100,VALID,0,VALID,18.7405,VALID,69,VALID,0.598479,
2004-10-14, 00:18:00,VALID,921.157,VALID,0,VALID,100,VALID,0,VALID,18.7184,VALID,76,VALID,0.456214,
2004-10-14, 00:19:00,VALID,921.121,VALID,0,VALID,100,VALID,0,VALID,18.702,VALID,76,VALID,0.371094,
2004-10-14, 00:20:00,VALID,921.113,VALID,0,VALID,100,VALID,0,VALID,18.702,VALID,76,VALID,0.285937,
2004-10-14, 00:21:00,VALID,921.099,VALID,0,VALID,100,VALID,-0.0339617,VALID,18.7184,VALID,70,VALID,0.397017,
2004-10-14, 00:22:00,VALID,921.107,VALID,0,VALID,100,VALID,0,VALID,18.7343,VALID,37,VALID,0.605923,
2004-10-14, 00:23:00,VALID,921.101,VALID,0,VALID,100,VALID,0,VALID,18.738,VALID,55,VALID,0.666243,
2004-10-14, 00:24:00,VALID,921.103,VALID,0,VALID,100,VALID,-0.0169808,VALID,18.7283,VALID,61,VALID,0.67294,
2004-10-14, 00:25:00,VALID,921.113,VALID,0,VALID,100,VALID,0,VALID,18.712,VALID,67,VALID,0.667969,
2004-10-14, 00:26:00,VALID,921.096,VALID,0,VALID,100,VALID,0,VALID,18.6889,VALID,68,VALID,0.772017,
2004-10-14, 00:27:00,VALID,921.085,VALID,0,VALID,100,VALID,0,VALID,18.6827,VALID,69,VALID,0.691992,
2004-10-14, 00:28:00,VALID,921.077,VALID,0,VALID,100,VALID,0,VALID,18.6534,VALID,69,VALID,0.658612,
2004-10-14, 00:29:00,VALID,921.086,VALID,0,VALID,100,VALID,0,VALID,18.6534,VALID,71,VALID,0.451791,
2004-10-14, 00:30:00,VALID,921.079,VALID,0,VALID,100,VALID,0,VALID,18.6439,VALID,71,VALID,0.470567,
2004-10-14, 00:31:00,VALID,921.101,VALID,0,VALID,100,VALID,0,VALID,18.6444,VALID,71,VALID,0.521007,
2004-10-14, 00:32:00,VALID,921.108,VALID,0,VALID,100,VALID,0,VALID,18.5955,VALID,66,VALID,0.840588,
2004-10-14, 00:33:00,VALID,921.109,VALID,0,VALID,100,VALID,-0.0169808,VALID,18.5376,VALID,58,VALID,0.898828,
2004-10-14, 00:34:00,VALID,921.102,VALID,0,VALID,100,VALID,0,VALID,18.5176,VALID,63,VALID,1.07667,
2004-10-14, 00:35:00,VALID,921.105,VALID,0,VALID,100,VALID,0,VALID,18.5436,VALID,68,VALID,0.90263,
2004-10-14, 00:36:00,VALID,921.103,VALID,0,VALID,100,VALID,0,VALID,18.5635,VALID,68,VALID,0.754092,
2004-10-14, 00:37:00,VALID,921.104,VALID,0,VALID,100,VALID,0,VALID,18.5764,VALID,69,VALID,0.848895,
2004-10-14, 00:38:00,VALID,921.109,VALID,0,VALID,100,VALID,0.0169808,VALID,18.605,VALID,61,VALID,0.580983,
2004-10-14, 00:39:00,VALID,921.124,VALID,0,VALID,100,VALID,0,VALID,18.6054,VALID,61,VALID,0.494606,
2004-10-14, 00:40:00,VALID,921.129,VALID,0,VALID,100,VALID,-0.0169808,VALID,18.6153,VALID,72,VALID,0.5625,
2004-10-14, 00:41:00,VALID,921.136,VALID,0,VALID,100,VALID,-0.0339617,VALID,18.6509,VALID,73,VALID,0.560014,
2004-10-14, 00:42:00,VALID,921.142,VALID,0,VALID,100,VALID,-0.0169808,VALID,18.6566,VALID,80,VALID,0.650073,
2004-10-14, 00:43:00,VALID,921.144,VALID,0,VALID,100,VALID,0,VALID,18.6513,VALID,124,VALID,0.803961,
2004-10-14, 00:44:00,VALID,921.146,VALID,0,VALID,100,VALID,0,VALID,18.5895,VALID,119,VALID,1.0101,
2004-10-14, 00:45:00,VALID,921.151,VALID,0,VALID,100,VALID,-0.0169808,VALID,18.5734,VALID,118,VALID,0.727951,
2004-10-14, 00:46:00,VALID,921.132,VALID,0,VALID,100,VALID,-0.0169808,VALID,18.5605,VALID,116,VALID,0.75093,
2004-10-14, 00:47:00,VALID,921.111,VALID,0,VALID,100,VALID,-0.0339617,VALID,18.5448,VALID,95,VALID,0.547238,
2004-10-14, 00:48:00,VALID,921.093,VALID,0,VALID,100,VALID,0,VALID,18.525,VALID,65,VALID,0.598264,
2004-10-14, 00:49:00,VALID,921.079,VALID,0,VALID,100,VALID,-0.0169808,VALID,18.5118,VALID,61,VALID,0.536395,
2004-10-14, 00:50:00,VALID,921.072,VALID,0,VALID,100,VALID,0,VALID,18.4858,VALID,61,VALID,0.509859,
2004-10-14, 00:51:00,VALID,921.066,VALID,0,VALID,100,VALID,0,VALID,18.4731,VALID,84,VALID,0.637463,
2004-10-14, 00:52:00,VALID,921.05,VALID,0,VALID,100,VALID,-0.0169808,VALID,18.486,VALID,80,VALID,0.666788,
2004-10-14, 00:53:00,VALID,921.042,VALID,0,VALID,100,VALID,0,VALID,18.4597,VALID,70,VALID,0.726749,
2004-10-14, 00:54:00,VALID,921.044,VALID,0,VALID,100,VALID,0.0169808,VALID,18.456,VALID,69,VALID,0.776296,
2004-10-14, 00:55:00,VALID,921.025,VALID,0,VALID,100,VALID,0,VALID,18.4433,VALID,62,VALID,0.903764,
2004-10-14, 00:56:00,VALID,921.027,VALID,0,VALID,100,VALID,-0.0169808,VALID,18.4505,VALID,72,VALID,0.943403,
2004-10-14, 00:57:00,VALID,921.026,VALID,0,VALID,100,VALID,0,VALID,18.4468,VALID,87,VALID,0.74272,
2004-10-14, 00:58:00,VALID,921.002,VALID,0,VALID,100,VALID,0,VALID,18.4728,VALID,91,VALID,0.653516,
2004-10-14, 00:59:00,VALID,920.988,VALID,0,VALID,100,VALID,0.0169808,VALID,18.4828,VALID,98,VALID,0.724609,
2004-10-14, 01:00:00,VALID,920.965,VALID,0,VALID,100,VALID,0,VALID,18.4987,VALID,99,VALID,0.693216,
2004-10-14, 01:01:00,VALID,920.945,VALID,0,VALID,100,VALID,0,VALID,18.4984,VALID,92,VALID,0.724254,
2004-10-14, 01:02:00,VALID,920.93,VALID,0,VALID,100,VALID,-0.0169808,VALID,18.4795,VALID,87,VALID,0.614931,
2004-10-14, 01:03:00,VALID,920.904,VALID,0,VALID,100,VALID,0,VALID,18.3986,VALID,84,VALID,0.699673,
2004-10-14, 01:04:00,VALID,920.877,VALID,0,VALID,100,VALID,-0.0169808,VALID,18.3536,VALID,73,VALID,0.659375,
2004-10-14, 01:05:00,VALID,920.857,VALID,0,VALID,100,VALID,0,VALID,18.3244,VALID,71,VALID,0.713356,
2004-10-14, 01:06:00,VALID,920.831,VALID,0,VALID,100,VALID,-0.0339617,VALID,18.3216,VALID,69,VALID,0.894259,
2004-10-14, 01:07:00,VALID,920.833,VALID,0,VALID,100,VALID,-0.0679233,VALID,18.3412,VALID,65,VALID,0.990184,
2004-10-14, 01:08:00,VALID,920.829,VALID,0,VALID,100,VALID,-0.0339617,VALID,18.3502,VALID,66,VALID,0.970052,
2004-10-14, 01:09:00,VALID,920.827,VALID,0,VALID,100,VALID,0.0169808,VALID,18.3702,VALID,72,VALID,0.942187,
2004-10-14, 01:10:00,VALID,920.836,VALID,0,VALID,100,VALID,0,VALID,18.3665,VALID,78,VALID,0.737645,
2004-10-14, 01:11:00,VALID,920.848,VALID,0,VALID,100,VALID,0,VALID,18.3859,VALID,94,VALID,0.81032,
2004-10-14, 01:12:00,VALID,920.845,VALID,0,VALID,100,VALID,-0.0169808,VALID,18.4048,VALID,100,VALID,0.953835,
2004-10-14, 01:13:00,VALID,920.837,VALID,0,VALID,100,VALID,-0.0169808,VALID,18.4247,VALID,95,VALID,0.989826,
2004-10-14, 01:14:00,VALID,920.824,VALID,0,VALID,100,VALID,0,VALID,18.4507,VALID,84,VALID,0.943892,
2004-10-14, 01:15:00,VALID,920.825,VALID,0,VALID,100,VALID,0,VALID,18.4599,VALID,70,VALID,0.7234,
2004-10-14, 01:16:00,VALID,920.811,VALID,0,VALID,100,VALID,-0.0169808,VALID,18.4668,VALID,60,VALID,0.618945,
2004-10-14, 01:17:00,VALID,920.802,VALID,0,VALID,100,VALID,0,VALID,18.4602,VALID,67,VALID,0.683594,
2004-10-14, 01:18:00,VALID,920.776,VALID,0,VALID,100,VALID,0,VALID,18.4724,VALID,65,VALID,0.924716,
2004-10-14, 01:19:00,VALID,920.767,VALID,0,VALID,100,VALID,0,VALID,18.4927,VALID,71,VALID,0.762074,
2004-10-14, 01:20:00,VALID,920.769,VALID,0,VALID,100,VALID,-0.0509425,VALID,18.4696,VALID,81,VALID,0.894626,
2004-10-14, 01:21:00,VALID,920.764,VALID,0,VALID,100,VALID,0,VALID,18.4662,VALID,103,VALID,1.08129,
2004-10-14, 01:22:00,VALID,920.753,VALID,0,VALID,100,VALID,-0.0169808,VALID,18.4696,VALID,116,VALID,0.861192,
2004-10-14, 01:23:00,VALID,920.738,VALID,0,VALID,100,VALID,0,VALID,18.4728,VALID,123,VALID,0.990282,
2004-10-14, 01:24:00,VALID,920.722,VALID,0,VALID,100,VALID,0,VALID,18.4768,VALID,113,VALID,1.10538,
2004-10-14, 01:25:00,VALID,920.726,VALID,0,VALID,100,VALID,0,VALID,18.4502,VALID,95,VALID,1.26067,
2004-10-14, 01:26:00,VALID,920.712,VALID,0,VALID,100,VALID,-0.0339617,VALID,18.4406,VALID,106,VALID,1.35629,
2004-10-14, 01:27:00,VALID,920.676,VALID,0,VALID,100,VALID,-0.0169808,VALID,18.4698,VALID,105,VALID,0.707617,
2004-10-14, 01:28:00,VALID,920.643,VALID,0,VALID,100,VALID,0,VALID,18.4924,VALID,109,VALID,0.321987,
2004-10-14, 01:29:00,VALID,920.631,VALID,0,VALID,100,VALID,0,VALID,18.4634,VALID,104,VALID,1.246,
2004-10-14, 01:30:00,VALID,920.618,VALID,0,VALID,100,VALID,-0.0169808,VALID,18.4016,VALID,81,VALID,0.944141,
2004-10-14, 01:31:00,VALID,920.583,VALID,0,VALID,100,VALID,0,VALID,18.3924,VALID,109,VALID,0.677689,
2004-10-14, 01:32:00,VALID,920.519,VALID,0,VALID,100,VALID,-0.0169808,VALID,18.412,VALID,166,VALID,0.640067,
2004-10-14, 01:33:00,VALID,920.526,VALID,0,VALID,100,VALID,-0.0169808,VALID,18.4413,VALID,162,VALID,0.591025,
2004-10-14, 01:34:00,VALID,920.55,VALID,0,VALID,100,VALID,0,VALID,18.4477,VALID,86,VALID,1.32578,
2004-10-14, 01:35:00,VALID,920.566,VALID,0,VALID,100,VALID,-0.0169808,VALID,18.3795,VALID,79,VALID,1.17685,
2004-10-14, 01:36:00,VALID,920.544,VALID,0,VALID,100,VALID,-0.0169808,VALID,18.3864,VALID,79,VALID,0.709821,
2004-10-14, 01:37:00,VALID,920.519,VALID,0,VALID,100,VALID,-0.0339617,VALID,18.4378,VALID,149,VALID,0.554497,
2004-10-14, 01:38:00,VALID,920.53,VALID,0,VALID,100,VALID,-0.0339617,VALID,18.4634,VALID,126,VALID,0.780556,
2004-10-14, 01:39:00,VALID,920.53,VALID,0,VALID,100,VALID,-0.0339617,VALID,18.4634,VALID,75,VALID,1.50521,
2004-10-14, 01:40:00,VALID,920.524,VALID,0,VALID,100,VALID,-0.0509425,VALID,18.4445,VALID,66,VALID,1.23214,
2004-10-14, 01:41:00,VALID,920.488,VALID,0,VALID,100,VALID,-0.0339617,VALID,18.4509,VALID,75,VALID,0.52983,
2004-10-14, 01:42:00,VALID,920.466,VALID,0,VALID,100,VALID,-0.0339617,VALID,18.4348,VALID,81,VALID,0.214558,
2004-10-14, 01:43:00,VALID,920.466,VALID,0,VALID,100,VALID,-0.0339617,VALID,18.415,VALID,92,VALID,1.24257,
2004-10-14, 01:44:00,VALID,920.44,VALID,0,VALID,100,VALID,-0.0169808,VALID,18.4117,VALID,96,VALID,1.19665,
2004-10-14, 01:45:00,VALID,920.424,VALID,0,VALID,100,VALID,-0.0169808,VALID,18.3965,VALID,112,VALID,0.897104,
2004-10-14, 01:46:00,VALID,920.404,VALID,0,VALID,100,VALID,-0.0339617,VALID,18.3859,VALID,120,VALID,0.785764,
2004-10-14, 01:47:00,VALID,920.396,VALID,0,VALID,100,VALID,0,VALID,18.3924,VALID,124,VALID,0.847747,
2004-10-14, 01:48:00,VALID,920.405,VALID,0,VALID,100,VALID,-0.0509425,VALID,18.3834,VALID,129,VALID,1.0332,
2004-10-14, 01:49:00,VALID,920.38,VALID,0,VALID,100,VALID,-0.0679233,VALID,18.3739,VALID,127,VALID,1.03299,
2004-10-14, 01:50:00,VALID,920.378,VALID,0,VALID,100,VALID,-0.0169808,VALID,18.3702,VALID,122,VALID,0.995075,
2004-10-14, 01:51:00,VALID,920.389,VALID,0,VALID,100,VALID,-0.0339617,VALID,18.3769,VALID,121,VALID,0.861471,
2004-10-14, 01:52:00,VALID,920.391,VALID,0,VALID,100,VALID,-0.0679233,VALID,18.3675,VALID,118,VALID,0.761328,
2004-10-14, 01:53:00,VALID,920.396,VALID,0,VALID,100,VALID,-0.0849042,VALID,18.3543,VALID,104,VALID,0.848214,
2004-10-14, 01:54:00,VALID,920.38,VALID,0,VALID,100,VALID,-0.0679233,VALID,18.335,VALID,65,VALID,0.517299,
2004-10-14, 01:55:00,VALID,920.341,VALID,0,VALID,100,VALID,-0.0339617,VALID,18.2833,VALID,46,VALID,0.825707,
2004-10-14, 01:56:00,VALID,920.309,VALID,0,VALID,100,VALID,-0.0849042,VALID,18.2413,VALID,49,VALID,0.615234,
2004-10-14, 01:57:00,VALID,920.301,VALID,0,VALID,100,VALID,-0.0849042,VALID,18.2254,VALID,49,VALID,0.414773,
2004-10-14, 01:58:00,VALID,920.309,VALID,0,VALID,100,VALID,-0.101885,VALID,18.2024,VALID,49,VALID,0.484184,
2004-10-14, 01:59:00,VALID,920.333,VALID,0,VALID,100,VALID,-0.0679233,VALID,18.1736,VALID,75,VALID,0.582564,
2004-10-14, 02:00:00,VALID,920.326,VALID,0,VALID,100,VALID,0.0169808,VALID,18.2114,VALID,102,VALID,0.852734,
2004-10-14, 02:01:00,VALID,920.333,VALID,0,VALID,100,VALID,0,VALID,18.2111,VALID,117,VALID,0.667039,
2004-10-14, 02:02:00,VALID,920.335,VALID,0,VALID,100,VALID,0.0169808,VALID,18.2174,VALID,92,VALID,0.658245,
2004-10-14, 02:03:00,VALID,920.323,VALID,0,VALID,100,VALID,0.0169808,VALID,18.2181,VALID,66,VALID,0.683594,
2004-10-14, 02:04:00,VALID,920.325,VALID,0,VALID,100,VALID,0.0169808,VALID,18.195,VALID,60,VALID,0.720526,
2004-10-14, 02:05:00,VALID,920.306,VALID,0,VALID,100,VALID,0.0169808,VALID,18.1597,VALID,59,VALID,0.567827,
2004-10-14, 02:06:00,VALID,920.314,VALID,0,VALID,100,VALID,0.0509425,VALID,18.1205,VALID,56,VALID,0.816584,
2004-10-14, 02:07:00,VALID,920.29,VALID,0,VALID,100,VALID,0.0339617,VALID,18.1404,VALID,57,VALID,0.932165,
2004-10-14, 02:08:00,VALID,920.284,VALID,0,VALID,100,VALID,0.0169808,VALID,18.1337,VALID,61,VALID,1.00781,
2004-10-14, 02:09:00,VALID,920.269,VALID,0,VALID,100,VALID,0.0169808,VALID,18.159,VALID,65,VALID,1.12109,
2004-10-14, 02:10:00,VALID,920.26,VALID,0,VALID,100,VALID,0.0169808,VALID,18.1886,VALID,60,VALID,1.05897,
2004-10-14, 02:11:00,VALID,920.25,VALID,0,VALID,100,VALID,0.101885,VALID,18.1879,VALID,59,VALID,1.01024,
2004-10-14, 02:12:00,VALID,920.274,VALID,0,VALID,100,VALID,0.0339617,VALID,18.195,VALID,63,VALID,0.87064,
2004-10-14, 02:13:00,VALID,920.268,VALID,0,VALID,100,VALID,0.0169808,VALID,18.1985,VALID,78,VALID,0.717297,
2004-10-14, 02:14:00,VALID,920.281,VALID,0,VALID,100,VALID,0.0339617,VALID,18.1724,VALID,63,VALID,0.528011,
2004-10-14, 02:15:00,VALID,920.296,VALID,0,VALID,100,VALID,0.0339617,VALID,18.1397,VALID,49,VALID,0.464844,
2004-10-14, 02:16:00,VALID,920.307,VALID,0,VALID,100,VALID,0.0679233,VALID,18.1272,VALID,47,VALID,0.232376,
2004-10-14, 02:17:00,VALID,920.319,VALID,0,VALID,100,VALID,0.0339617,VALID,18.1238,VALID,47,VALID,0.081577,
2004-10-14, 02:18:00,VALID,920.333,VALID,0,VALID,100,VALID,4.62593e-018,VALID,18.118,VALID,47,VALID,0.215661,
2004-10-14, 02:19:00,VALID,920.336,VALID,0,VALID,100,VALID,-0.0509425,VALID,18.135,VALID,47,VALID,0.113889,
2004-10-14, 02:20:00,VALID,920.352,VALID,0,VALID,100,VALID,-0.0509425,VALID,18.1378,VALID,47,VALID,0.3038,
2004-10-14, 02:21:00,VALID,920.355,VALID,0,VALID,100,VALID,-0.0679233,VALID,18.1902,VALID,49,VALID,0.419331,
2004-10-14, 02:22:00,VALID,920.353,VALID,0,VALID,100,VALID,-0.0509425,VALID,18.1966,VALID,101,VALID,0.769985,
2004-10-14, 02:23:00,VALID,920.351,VALID,0,VALID,100,VALID,-0.0339617,VALID,18.2091,VALID,121,VALID,1.08346,
2004-10-14, 02:24:00,VALID,920.323,VALID,0,VALID,100,VALID,-0.0849042,VALID,18.2351,VALID,115,VALID,0.9246,
2004-10-14, 02:25:00,VALID,920.297,VALID,0,VALID,100,VALID,-0.0509425,VALID,18.2605,VALID,109,VALID,0.903274,
2004-10-14, 02:26:00,VALID,920.283,VALID,0,VALID,100,VALID,-0.0679233,VALID,18.2835,VALID,98,VALID,0.859375,
2004-10-14, 02:27:00,VALID,920.267,VALID,0,VALID,100,VALID,-0.0679233,VALID,18.2868,VALID,95,VALID,0.904251,
2004-10-14, 02:28:00,VALID,920.261,VALID,0,VALID,100,VALID,-0.0509425,VALID,18.2709,VALID,116,VALID,0.852628,
2004-10-14, 02:29:00,VALID,920.241,VALID,0,VALID,100,VALID,-0.0509425,VALID,18.2644,VALID,129,VALID,1.15454,
2004-10-14, 02:30:00,VALID,920.231,VALID,0,VALID,100,VALID,-0.0509425,VALID,18.2739,VALID,133,VALID,1.25242,
2004-10-14, 02:31:00,VALID,920.231,VALID,0,VALID,100,VALID,-0.0849042,VALID,18.2935,VALID,121,VALID,1.13504,
2004-10-14, 02:32:00,VALID,920.222,VALID,0,VALID,100,VALID,-0.101885,VALID,18.2833,VALID,106,VALID,1.23874,
2004-10-14, 02:33:00,VALID,920.219,VALID,0,VALID,100,VALID,-0.0679233,VALID,18.2642,VALID,101,VALID,1.06845,
2004-10-14, 02:34:00,VALID,920.198,VALID,0,VALID,100,VALID,0,VALID,18.2704,VALID,101,VALID,0.878125,
2004-10-14, 02:35:00,VALID,920.177,VALID,0,VALID,100,VALID,-0.0849042,VALID,18.2575,VALID,97,VALID,0.522104,
2004-10-14, 02:36:00,VALID,920.176,VALID,0,VALID,100,VALID,-0.0339617,VALID,18.2413,VALID,86,VALID,0.417411,
2004-10-14, 02:37:00,VALID,920.18,VALID,0,VALID,100,VALID,-0.0339617,VALID,18.2411,VALID,92,VALID,0.483681,
2004-10-14, 02:38:00,VALID,920.181,VALID,0,VALID,100,VALID,-0.0509425,VALID,18.2579,VALID,74,VALID,0.187863,
2004-10-14, 02:39:00,VALID,920.177,VALID,0,VALID,100,VALID,-0.0339617,VALID,18.2515,VALID,47,VALID,0.38681,
2004-10-14, 02:40:00,VALID,920.2,VALID,0,VALID,100,VALID,0,VALID,18.2676,VALID,51,VALID,0.795351,
2004-10-14, 02:41:00,VALID,920.203,VALID,0,VALID,100,VALID,-0.0339617,VALID,18.2672,VALID,66,VALID,1.06613,
2004-10-14, 02:42:00,VALID,920.216,VALID,0,VALID,100,VALID,0,VALID,18.2672,VALID,81,VALID,1.05309,
2004-10-14, 02:43:00,VALID,920.218,VALID,0,VALID,100,VALID,-0.0339617,VALID,18.2734,VALID,90,VALID,0.840625,
2004-10-14, 02:44:00,VALID,920.203,VALID,0,VALID,100,VALID,0,VALID,18.2536,VALID,99,VALID,0.563244,
2004-10-14, 02:45:00,VALID,920.181,VALID,0,VALID,100,VALID,-0.0339617,VALID,18.254,VALID,102,VALID,0.665365,
2004-10-14, 02:46:00,VALID,920.152,VALID,0,VALID,100,VALID,0,VALID,18.2446,VALID,102,VALID,0.558866,
2004-10-14, 02:47:00,VALID,920.144,VALID,0,VALID,100,VALID,-0.0169808,VALID,18.2515,VALID,96,VALID,0.611421,
2004-10-14, 02:48:00,VALID,920.127,VALID,0,VALID,100,VALID,0.0169808,VALID,18.2471,VALID,95,VALID,0.563227,
2004-10-14, 02:49:00,VALID,920.127,VALID,0,VALID,100,VALID,0.0679233,VALID,18.2561,VALID,90,VALID,0.882813,
2004-10-14, 02:50:00,VALID,920.124,VALID,0,VALID,100,VALID,0.0339617,VALID,18.2593,VALID,83,VALID,0.672828,
2004-10-14, 02:51:00,VALID,920.113,VALID,0,VALID,100,VALID,0.0509425,VALID,18.2695,VALID,83,VALID,0.691778,
2004-10-14, 02:52:00,VALID,920.093,VALID,0,VALID,100,VALID,0.0509425,VALID,18.2725,VALID,64,VALID,0.657885,
2004-10-14, 02:53:00,VALID,920.097,VALID,0,VALID,100,VALID,0.0849042,VALID,18.26,VALID,79,VALID,0.736374,
2004-10-14, 02:54:00,VALID,920.086,VALID,0,VALID,100,VALID,0.0169808,VALID,18.2729,VALID,87,VALID,0.621271,
2004-10-14, 02:55:00,VALID,920.079,VALID,0,VALID,100,VALID,0.0339617,VALID,18.2692,VALID,94,VALID,0.496185,
2004-10-14, 02:56:00,VALID,920.053,VALID,0,VALID,100,VALID,0.0169808,VALID,18.2822,VALID,97,VALID,0.584484,
2004-10-14, 02:57:00,VALID,920.037,VALID,0,VALID,100,VALID,0.0169808,VALID,18.2886,VALID,85,VALID,0.571715,
2004-10-14, 02:58:00,VALID,920.019,VALID,0,VALID,100,VALID,0.0339617,VALID,18.2988,VALID,80,VALID,0.717882,
2004-10-14, 02:59:00,VALID,920.02,VALID,0,VALID,100,VALID,0.0509425,VALID,18.2891,VALID,79,VALID,0.978849,
2004-10-14, 03:00:00,VALID,920.027,VALID,0,VALID,100,VALID,0.0679233,VALID,18.2856,VALID,92,VALID,0.972301,
2004-10-14, 03:01:00,VALID,920.016,VALID,0,VALID,100,VALID,0.0679233,VALID,18.2755,VALID,91,VALID,0.834077,
2004-10-14, 03:02:00,VALID,920.009,VALID,0,VALID,100,VALID,0.0679233,VALID,18.2822,VALID,85,VALID,0.974019,
2004-10-14, 03:03:00,VALID,919.996,VALID,0,VALID,100,VALID,0.101885,VALID,18.2918,VALID,76,VALID,0.68006,
2004-10-14, 03:04:00,VALID,919.984,VALID,0,VALID,100,VALID,0.0509425,VALID,18.2757,VALID,75,VALID,0.846294,
2004-10-14, 03:05:00,VALID,919.969,VALID,0,VALID,100,VALID,0.0849042,VALID,18.2785,VALID,97,VALID,0.663154,
2004-10-14, 03:06:00,VALID,919.969,VALID,0,VALID,100,VALID,0.0849042,VALID,18.2725,VALID,106,VALID,0.712209,
2004-10-14, 03:07:00,VALID,919.956,VALID,0,VALID,100,VALID,0.0339617,VALID,18.2561,VALID,118,VALID,0.876953,
2004-10-14, 03:08:00,VALID,919.951,VALID,0,VALID,100,VALID,0.0849042,VALID,18.2331,VALID,114,VALID,1.1408,
2004-10-14, 03:09:00,VALID,919.951,VALID,0,VALID,100,VALID,0.101885,VALID,18.2536,VALID,105,VALID,0.921875,
2004-10-14, 03:10:00,VALID,919.947,VALID,0,VALID,100,VALID,0.0339617,VALID,18.2333,VALID,112,VALID,0.838481,
2004-10-14, 03:11:00,VALID,919.945,VALID,0,VALID,100,VALID,0.0849042,VALID,18.2301,VALID,106,VALID,0.961115,
2004-10-14, 03:12:00,VALID,919.956,VALID,0,VALID,100,VALID,0.0849042,VALID,18.2241,VALID,106,VALID,0.955433,
2004-10-14, 03:13:00,VALID,919.952,VALID,0,VALID,100,VALID,0.0509425,VALID,18.2211,VALID,106,VALID,0.601935,
2004-10-14, 03:14:00,VALID,919.947,VALID,0,VALID,100,VALID,0.101885,VALID,18.2015,VALID,115,VALID,1.13662,
2004-10-14, 03:15:00,VALID,919.945,VALID,0,VALID,100,VALID,0.0509425,VALID,18.2012,VALID,117,VALID,1.17468,
2004-10-14, 03:16:00,VALID,919.95,VALID,0,VALID,100,VALID,0.0679233,VALID,18.1819,VALID,123,VALID,1.25725,
2004-10-14, 03:17:00,VALID,919.957,VALID,0,VALID,100,VALID,0.0849042,VALID,18.1655,VALID,125,VALID,1.13519,
2004-10-14, 03:18:00,VALID,919.967,VALID,0,VALID,100,VALID,0.0509425,VALID,18.1696,VALID,110,VALID,1.36319,
2004-10-14, 03:19:00,VALID,919.951,VALID,0,VALID,100,VALID,-0.0339617,VALID,18.174,VALID,114,VALID,1.21038,
2004-10-14, 03:20:00,VALID,919.94,VALID,0,VALID,100,VALID,-0.0509425,VALID,18.1606,VALID,120,VALID,0.709517,
2004-10-14, 03:21:00,VALID,919.909,VALID,0,VALID,100,VALID,-0.0169808,VALID,18.1609,VALID,112,VALID,1.11337,
2004-10-14, 03:22:00,VALID,919.878,VALID,0,VALID,100,VALID,-0.0679233,VALID,18.1639,VALID,122,VALID,0.834223,
2004-10-14, 03:23:00,VALID,919.864,VALID,0,VALID,100,VALID,-0.0679233,VALID,18.1738,VALID,122,VALID,0.630335,
2004-10-14, 03:24:00,VALID,919.845,VALID,0,VALID,100,VALID,-0.0849042,VALID,18.1609,VALID,124,VALID,0.260975,
2004-10-14, 03:25:00,VALID,919.843,VALID,0,VALID,100,VALID,-0.0509425,VALID,18.1546,VALID,107,VALID,0.439918,
2004-10-14, 03:26:00,VALID,919.831,VALID,0,VALID,100,VALID,-0.0339617,VALID,18.1346,VALID,128,VALID,1.15714,
2004-10-14, 03:27:00,VALID,919.82,VALID,0,VALID,100,VALID,-0.0849042,VALID,18.1413,VALID,134,VALID,1.03289,
2004-10-14, 03:28:00,VALID,919.809,VALID,0,VALID,100,VALID,-0.0169808,VALID,18.1413,VALID,132,VALID,0.960556,
2004-10-14, 03:29:00,VALID,919.822,VALID,0,VALID,100,VALID,-0.0509425,VALID,18.1443,VALID,116,VALID,0.979651,
2004-10-14, 03:30:00,VALID,919.818,VALID,0,VALID,100,VALID,-0.0169808,VALID,18.1445,VALID,120,VALID,1.09527,
2004-10-14, 03:31:00,VALID,919.817,VALID,0,VALID,100,VALID,-0.0509425,VALID,18.1574,VALID,128,VALID,1.20313,
2004-10-14, 03:32:00,VALID,919.836,VALID,0,VALID,100,VALID,-0.0509425,VALID,18.1805,VALID,134,VALID,1.11702,
2004-10-14, 03:33:00,VALID,919.845,VALID,0,VALID,100,VALID,-0.0169808,VALID,18.1634,VALID,134,VALID,0.979833,
2004-10-14, 03:34:00,VALID,919.865,VALID,0,VALID,100,VALID,0,VALID,18.177,VALID,129,VALID,0.964558,
2004-10-14, 03:35:00,VALID,919.891,VALID,0,VALID,100,VALID,0,VALID,18.1768,VALID,129,VALID,0.979106,
2004-10-14, 03:36:00,VALID,919.912,VALID,0,VALID,100,VALID,0,VALID,18.1895,VALID,127,VALID,0.930414,
2004-10-14, 03:37:00,VALID,919.919,VALID,0,VALID,100,VALID,0,VALID,18.2056,VALID,126,VALID,0.702762,
2004-10-14, 03:38:00,VALID,919.941,VALID,0,VALID,100,VALID,0,VALID,18.2222,VALID,126,VALID,0.497024,
2004-10-14, 03:39:00,VALID,919.953,VALID,0,VALID,100,VALID,0,VALID,18.2153,VALID,126,VALID,0.365189,
2004-10-14, 03:40:00,VALID,919.972,VALID,0,VALID,100,VALID,0,VALID,18.2056,VALID,126,VALID,0.0175781,
2004-10-14, 03:41:00,VALID,919.971,VALID,0,VALID,100,VALID,0,VALID,18.174,VALID,126,VALID,0,
2004-10-14, 03:42:00,VALID,919.988,VALID,0,VALID,100,VALID,0,VALID,18.1542,VALID,126,VALID,0,